Regional Weather Roundup
Issued by NWS

Home | Current Version | Previous Version | Text Only | Print | Product List | Glossary On
Versions: 1 2 3 4 5 6 7 8 9 10 11 12 13 14 15 16 17 18 19 20 21 22 23 24 25 26 27 28 29 30 31 32 33 34 35 36 37 38 39 40 41 42 43 44 45 46 47 48 49 50
000
ASUS46 KLOX 301512
RWRCA

SOUTHERN CALIFORNIA WEATHER ROUNDUP
NATIONAL WEATHER SERVICE OXNARD CALIFORNIA
800 AM PDT SAT AUG 30 2014

NOTE: "FAIR" INDICATES FEW OR NO CLOUDS BELOW 12,000 FEET WITH NO
SIGNIFICANT WEATHER AND/OR OBSTRUCTIONS TO VISIBILITY.

  -  STATIONS PRECEEDED BY AN ASTERISK (*) ARE NOT NWS OR FAA
     STATIONS AND ARE NOT SUBJECT TO NWS AND FAA QUALITY CONTROL.

CAZ041-042-087-301600-
LA AND ORANGE COUNTY COASTAL AREAS


CITY           SKY/WX    TMP DP  RH WIND       PRES   REMARKS
L.A. DOWNTOWN  SUNNY     70  63  78 CALM      29.82S
L.A. AIRPORT   MOSUNNY   69  64  84 SE3       29.84R
LONG BEACH     CLOUDY    68  64  87 E6        29.83S

CITY           SKY/WX    TMP DP  RH WIND       PRES   REMARKS
AVALON           N/A     66 N/A N/A SE3         N/A
FULLERTON      CLOUDY    68  63  84 CALM      29.83S
*GETTY CENTER    N/A     68  57  68 E2          N/A
HAWTHORNE      MOSUNNY   70  64  83 E3        29.84R
*LOS ALAMITOS  PTSUNNY   66  64  94 VRB2      29.84R
*REDONDO BEACH   N/A     65  63  91 CALM      29.83R
SANTA ANA      CLOUDY    69  62  78 CALM      29.84R
STA MONICA APT SUNNY     69  62  78 CALM      29.83S
TORRANCE       MOSUNNY   70  66  88 VRB7      29.84S
*UCLA            N/A     72  59  64 CALM      29.81S

$$

CAZ547-548-048-301600-
LA COUNTY VALLEYS AND INLAND EMPIRE


CITY           SKY/WX    TMP DP  RH WIND       PRES   REMARKS
BURBANK        SUNNY     68  57  68 CALM      29.84R
VAN NUYS       SUNNY     68  55  63 CALM      29.84R

CITY           SKY/WX    TMP DP  RH WIND       PRES   REMARKS
CORONA AIRPORT SUNNY     69  60  73 CALM      29.85S
*CHATSWORTH      N/A     73  57  58 CALM      29.79S
CHINO          MOSUNNY   67  60  78 CALM      29.86R
*CLAREMONT       N/A     74  47  38 CALM        N/A
ONTARIO        MOSUNNY   69  59  70 CALM      29.85S
*PASADENA        N/A     73  63  68 CALM        N/A
POMONA         SUNNY     66  59  77 CALM      29.88R
RIVERSIDE      SUNNY     69  57  65 CALM      29.86R
SAN BERNARDINO SUNNY     68  52  56 CALM      29.87R
*WHITEMAN AP   NOT AVBL
*WOODLAND HILL   N/A     70  55  60 N1          N/A

$$

CAZ054-055-301600-
LA AND SAN BERNARDINO COUNTY MOUNTAINS


CITY           SKY/WX    TMP DP  RH WIND       PRES   REMARKS
*ACTON           N/A     61  29  29 N3          N/A
*BIG BEAR AIRP SUNNY     54  37  54 CALM      30.22S
*BIG PINES       N/A     65  11  12 CALM        N/A
*CHILAO          N/A     80  16   9 CALM        N/A
MT WILSON NWS    N/A     77  16  10 MISG        N/A
SANDBERG       SUNNY     75  38  26 N8        30.08R
*WARM SPRINGS    N/A     79  37  22 E2G14       N/A

$$

CAZ028-029-059-060-099-301600-
ANTELOPE VALLEY AND SURROUNDING AREAS


CITY           SKY/WX    TMP DP  RH WIND       PRES   REMARKS
LANCASTER      SUNNY     82  39  21 W13       29.90S
PALMDALE       SUNNY     76  32  20 S6        29.92S

CITY           SKY/WX    TMP DP  RH WIND       PRES   REMARKS
29 PALMS       SUNNY     79  31  17 NW7       29.94R
BARSTOW/DAGGET SUNNY     79  37  22 W9        29.86S
BISHOP         PTSUNNY   66  33  29 CALM      30.00R
CHINA LAKE     MOSUNNY   73  35  25 CALM      29.87R
EDWARDS AFB    PTSUNNY   77  36  22 S10       29.88S
MOJAVE         FAIR      82  32  16 W14G21    29.91R
NEEDLES        SUNNY     89  36  15 NW5       29.78R
VICTORVILLE    SUNNY     75  28  17 SE6       29.95S

$$

CAZ039-040-301600-
VENTURA AND SANTA BARBARA COUNTY COAST


CITY           SKY/WX    TMP DP  RH WIND       PRES   REMARKS
CAMARILLO      MOSUNNY   64  58  80 CALM      29.83S HAZE
NWS OXNARD       N/A     63  60  90 NW1       29.83S
OXNARD AIRPORT FOG       63  63 100 CALM      29.83R VSB 1/4
*POINT MUGU    PTSUNNY   66  62  87 NE5       29.84S FOG
SBA APT/GOLETA SUNNY     67  60  78 CALM      29.83R
*VENTURA         N/A     64  62  93 CALM      29.87S

$$

CAZ044-045-301600-
VENTURA COUNTY VALLEYS


CITY           SKY/WX    TMP DP  RH WIND       PRES   REMARKS
*SIMI VALLEY     N/A     67  54  61 CALM      29.79R
*OJAI            N/A     67  56  66 CALM      29.78S
*FILLMORE        N/A     63  58  84 CALM      29.73S

$$

CAZ053-301600-
VENTURA COUNTY MOUNTAINS


CITY           SKY/WX    TMP DP  RH WIND       PRES   REMARKS
*LOCKWOOD VLY    N/A     64  36  34 MISG        N/A
*ROSE VALLEY     N/A     57  37  47 MISG        N/A

$$

CAZ034-035-036-301600-
CENTRAL COAST AND SANTA YNEZ VALLEY


CITY           SKY/WX    TMP DP  RH WIND       PRES   REMARKS
SAN LUIS OBISP MOSUNNY   60  58  92 CALM      29.86S
SANTA MARIA    FOG       61  58  90 CALM      29.87S VSB 1

CITY           SKY/WX    TMP DP  RH WIND       PRES   REMARKS
*CAL POLY SLO    N/A     61  57  88 SW3         N/A
*LOMPOC        CLOUDY    61  55  82 E5        29.87S
*PISMO BEACH     N/A     60  58  93 SW2       29.86S
*SANTA YNEZ    FOG       57  55  94 CALM      29.88R VSB 1

$$

CAZ037-038-051-301600-
SAN LUIS OBISPO COUNTY INTERIOR AND CUYAMA VALLEY


CITY           SKY/WX    TMP DP  RH WIND       PRES   REMARKS
*CUYAMA          N/A     68  47  45 E3        29.84R
PASO ROBLES    MOSUNNY   62  51  67 CALM      29.92R

$$

CAZ032-033-061-301600-
SOUTHERN DESERTS


CITY           SKY/WX    TMP DP  RH WIND       PRES   REMARKS
BLYTHE         SUNNY     84  46  26 E5        29.74R
IMPERIAL       SUNNY     83  50  31 SW3       29.70R
PALM SPRINGS   SUNNY     85  48  27 CALM      29.75R
THERMAL        SUNNY     84  52  33 CALM      29.68S

$$

ELSEWHERE ACROSS THE WESTERN UNITED STATES AND MEXICO


CITY           SKY/WX    TMP DP  RH WIND       PRES   REMARKS
DENVER, CO     MOSUNNY   67  46  47 SW15      30.08F
GRAND CANYON,  SUNNY     66  43  43 CALM      30.25R
HONOLULU, HI   MOCLDY    77  68  73 VRB5      29.91R
KAHULUI, MAUI  CLEAR     72  64  78 NE3       29.91S
LAKE TAHOE, CA SUNNY     64  33  31 S7        30.16R
LAS VEGAS, NV  PTSUNNY   85  35  16 W5        29.81R
MAMMOTH LAKES, FAIR      63  25  23 SE7       30.22S
MEXICO CITY, M MOSUNNY   64  52  63 NE6       30.28R
PHOENIX, AZ    MOSUNNY   87  46  24 E9        29.81S
PORTLAND, OR   CLOUDY    63  57  81 SE10      29.94S
RENO, NV       MOSUNNY   67  38  34 CALM      30.04S
SALT LAKE CITY CLOUDY    75  42  30 SE9       29.94R
SAN DIEGO, CA  PTSUNNY   69  63  81 S3        29.85R
SAN FRANCISCO, PTSUNNY   65  60  84 W9        29.91R
SAN JOSE, CA   PTSUNNY   64  58  80 CALM      29.92R
SEATTLE, WA    CLOUDY    61  56  83 CALM      29.93S
TIJUANA, MEX     N/A    N/A N/A N/A MISG        N/A

$$

STATION/POSITION TIME  TEMP    WIND        PRES    VSBY  WAVE
                       AIR SEA DIR/SP/G                  HT/PER
                 (UTC) (F)     (DEG/KT/KT) (MB)    (MI)  (FT/S)
POINT ARGUELLO B NOT AVBL
WEST SANTA BARBA 1500   60 61  330/ 14/ 17 1009.5R         5/ 7
POINT CONCEPTION NOT AVBL
EAST SANTA BARBA 1500   66 66   50/  4/  4 1010.1
SANTA MONICA BAY 1500   67 71  170/  2/  4 1009.9R         4/ 9


USA.gov is the U.S. government's official web portal to all federal, state and local government web resources and services.